Location: Zapote
(9.9191°N, 84.0597°W)
Time: 11:19:49
(UTC-06:00)

DELFI C3 - Visible Passes

Search period start: 12 April 2021 00:00
Search period end: 22 April 2021 00:00
Orbit: 532 x 548 km, 97.4° (Epoch: 11 April)

Date Brightness Start Highest point End Pass type
(mag) Time Alt. Az. Time Alt. Az. Time Alt. Az.
12 Apr ? 18:43:25 14° NE 18:43:25 14° NE 18:44:39 10° NE visible
13 Apr ? 18:35:56 12° ENE 18:35:56 12° ENE 18:36:37 10° NE visible
13 Apr ? 20:11:26 13° WNW 20:11:26 13° WNW 20:12:02 10° NW visible
14 Apr ? 20:03:56 16° NW 20:03:56 16° NW 20:05:02 10° NW visible
15 Apr ? 19:56:26 20° NW 19:56:26 20° NW 19:57:57 10° NW visible
16 Apr ? 19:48:56 25° NW 19:48:56 25° NW 19:50:46 10° NNW visible
17 Apr ? 19:41:26 30° NW 19:41:26 30° NW 19:43:32 10° NNW visible
18 Apr ? 19:33:54 35° NNW 19:33:54 35° NNW 19:36:14 10° NNW visible
19 Apr ? 19:26:24 39° N 19:26:24 39° N 19:28:52 10° N visible
20 Apr ? 19:18:53 39° NNE 19:18:53 39° NNE 19:21:28 10° N visible
21 Apr ? 19:11:22 35° NE 19:11:22 35° NE 19:13:59 10° N visible
